Location: Kuppenheim
(48.8299°N, 8.2568°E)
Time: 12:58:10
(UTC+00:00)

ERBS - Visible Passes

Search period start: 23 October 2021 00:00
Search period end: 02 November 2021 00:00
Orbit: 401 x 405 km, 57.0° (Epoch: 22 October)

Date Brightness Start Highest point End Pass type
(mag) Time Alt. Az. Time Alt. Az. Time Alt. Az.
24 Oct 4.4 04:58:04 10° S 05:00:51 26° SE 05:03:38 10° ENE visible
25 Oct 5.2 04:07:03 10° SSE 04:08:50 14° SE 04:10:36 10° E visible
26 Oct 2.9 04:48:56 10° SW 04:52:07 52° SE 04:55:19 10° ENE visible
27 Oct 4.0 03:59:02 23° SSE 03:59:57 27° SE 04:02:47 10° ENE visible
28 Oct 5.5 03:09:09 12° ESE 03:09:09 12° ESE 03:09:47 10° E visible
28 Oct 2.1 04:41:49 28° WSW 04:43:25 78° NW 04:46:42 10° NE visible
29 Oct 3.3 03:51:46 45° E 03:51:46 45° E 03:54:20 10° ENE visible
29 Oct 3.3 05:24:26 11° W 05:27:15 30° NNW 05:30:12 10° NE visible
30 Oct 5.8 03:01:36 11° ENE 03:01:36 11° ENE 03:01:46 10° ENE visible
30 Oct 2.6 04:34:15 40° NW 04:34:45 44° NNW 04:37:55 10° NE visible
31 Oct 4.2 03:43:58 27° NE 03:43:58 27° NE 03:45:37 10° NE visible
31 Oct 3.7 05:16:37 13° WNW 05:18:43 23° NNW 05:21:25 10° NE visible
01 Nov 3.4 04:26:15 29° NNW 04:26:15 29° NNW 04:29:03 10° NE visible
